When you browse on this site, cookies collect data to enhance your experience and personalize the content and advertising you see.
Visit our Privacy Policy to learn more. By continuing to use the site, you agree to this use of cookies and data.
  • In Hungary
  • List of Countries
  • For 7 days
  • Water Temperature
  • Satellite Maps
  • Weather Map
  • News
  • Weather Widgets
  • user-avatar
    Login

    Hourly Weather Stawiszyce

    Today, 24 May, Friday

    Time Temperature Precipitation Wind Pressure Humidity
    00:00 +12°C° 0.4 mm 4 mps 742 mmHg 95%
    01:00 +12°C° 0.4 mm 3 mps 742 mmHg 95%
    02:00 +12°C° 0.2 mm 4 mps 742 mmHg 95%
    03:00 +12°C° 0.2 mm 4 mps 742 mmHg 95%
    04:00 +12°C° 0.2 mm 4 mps 742 mmHg 96%
    05:00 +12°C° 0 mm 3 mps 742 mmHg 95%
    06:00 +12°C° 0 mm 3 mps 742 mmHg 94%
    07:00 +12°C° 0 mm 3 mps 742 mmHg 93%
    08:00 +12°C° 0.1 mm 3 mps 742 mmHg 91%
    09:00 +13°C° 0.1 mm 3 mps 742 mmHg 90%
    10:00 +13°C° 0.1 mm 3 mps 742 mmHg 88%
    11:00 +15°C° 0 mm 2 mps 742 mmHg 86%
    12:00 +16°C° 0 mm 2 mps 742 mmHg 84%
    13:00 +16°C° 0 mm 2 mps 741 mmHg 82%
    14:00 +17°C° 0 mm 2 mps 741 mmHg 80%
    15:00 +17°C° 0 mm 2 mps 741 mmHg 78%
    16:00 +18°C° 0 mm 2 mps 741 mmHg 76%
    17:00 +17°C° 0 mm 2 mps 741 mmHg 79%
    18:00 +16°C° 0 mm 2 mps 740 mmHg 81%
    19:00 +16°C° 0 mm 1 mps 740 mmHg 84%
    20:00 +15°C° 0 mm 1 mps 740 mmHg 86%
    21:00 +14°C° 0 mm 1 mps 741 mmHg 87%
    22:00 +13°C° 0 mm 1 mps 741 mmHg 89%
    23:00 +13°C° 0 mm 1 mps 740 mmHg 90%

    Tomorrow, 25 May, Saturday

    Time Temperature Precipitation Wind Pressure Humidity
    00:00 +12°C° 0 mm 1 mps 740 mmHg 91%
    01:00 +12°C° 0 mm 2 mps 740 mmHg 91%
    02:00 +10°C° 0 mm 2 mps 740 mmHg 92%
    03:00 +10°C° 0 mm 2 mps 740 mmHg 93%
    04:00 +10°C° 0 mm 2 mps 740 mmHg 94%
    05:00 +12°C° 0 mm 2 mps 740 mmHg 90%
    06:00 +14°C° 0 mm 2 mps 740 mmHg 86%
    07:00 +16°C° 0 mm 3 mps 740 mmHg 82%
    08:00 +17°C° 0 mm 3 mps 741 mmHg 74%
    09:00 +18°C° 0 mm 3 mps 741 mmHg 67%
    10:00 +20°C° 0 mm 3 mps 741 mmHg 59%
    11:00 +21°C° 0 mm 3 mps 741 mmHg 57%
    12:00 +21°C° 0 mm 3 mps 740 mmHg 56%
    13:00 +22°C° 0 mm 3 mps 740 mmHg 54%
    14:00 +22°C° 0.1 mm 3 mps 740 mmHg 58%
    15:00 +22°C° 0.1 mm 3 mps 740 mmHg 61%
    16:00 +21°C° 0.1 mm 3 mps 740 mmHg 65%
    17:00 +20°C° 0.3 mm 3 mps 740 mmHg 71%
    18:00 +19°C° 0.3 mm 2 mps 740 mmHg 77%
    19:00 +17°C° 0.3 mm 2 mps 740 mmHg 84%
    20:00 +16°C° 0 mm 2 mps 740 mmHg 86%
    21:00 +15°C° 0 mm 1 mps 740 mmHg 87%
    22:00 +14°C° 0 mm 1 mps 741 mmHg 89%
    23:00 +14°C° 0 mm 1 mps 741 mmHg 90%

    Day after tomorrow, 26 May, Sunday

    Time Temperature Precipitation Wind Pressure Humidity
    00:00 +13°C° 0 mm 1 mps 741 mmHg 90%
    01:00 +13°C° 0 mm 1 mps 741 mmHg 91%
    02:00 +12°C° 0 mm 0 mps 741 mmHg 91%
    03:00 +11°C° 0 mm 0 mps 741 mmHg 91%
    04:00 +11°C° 0 mm 0 mps 741 mmHg 91%
    05:00 +13°C° 0 mm 0 mps 741 mmHg 88%
    06:00 +15°C° 0 mm 1 mps 741 mmHg 85%
    07:00 +18°C° 0 mm 1 mps 741 mmHg 83%
    08:00 +18°C° 0.1 mm 2 mps 741 mmHg 80%
    09:00 +19°C° 0.1 mm 2 mps 741 mmHg 77%
    10:00 +20°C° 0.1 mm 3 mps 741 mmHg 74%
    11:00 +20°C° 0.2 mm 3 mps 740 mmHg 73%
    12:00 +21°C° 0.2 mm 4 mps 740 mmHg 71%
    13:00 +21°C° 0.2 mm 4 mps 740 mmHg 69%
    14:00 +21°C° 0.1 mm 4 mps 740 mmHg 68%
    15:00 +22°C° 0.1 mm 4 mps 740 mmHg 66%
    16:00 +22°C° 0.1 mm 3 mps 740 mmHg 65%
    17:00 +20°C° 0.2 mm 3 mps 740 mmHg 70%
    18:00 +19°C° 0.2 mm 2 mps 740 mmHg 76%
    19:00 +19°C° 0.2 mm 1 mps 740 mmHg 81%
    20:00 +18°C° 0 mm 1 mps 740 mmHg 83%
    21:00 +16°C° 0 mm 1 mps 740 mmHg 85%
    22:00 +14°C° 0 mm 1 mps 741 mmHg 87%
    23:00 +14°C° 0 mm 1 mps 741 mmHg 88%

    27 May, Monday

    Time Temperature Precipitation Wind Pressure Humidity
    00:00 +14°C° 0 mm 1 mps 741 mmHg 89%
    01:00 +14°C° 0 mm 1 mps 741 mmHg 89%
    02:00 +13°C° 0 mm 1 mps 740 mmHg 91%
    03:00 +13°C° 0 mm 1 mps 740 mmHg 92%
    04:00 +13°C° 0 mm 1 mps 740 mmHg 93%
    05:00 +15°C° 0 mm 2 mps 740 mmHg 89%
    06:00 +17°C° 0 mm 2 mps 740 mmHg 86%
    07:00 +18°C° 0 mm 2 mps 740 mmHg 82%
    08:00 +20°C° 0 mm 2 mps 740 mmHg 76%
    09:00 +21°C° 0 mm 3 mps 740 mmHg 70%
    10:00 +24°C° 0 mm 3 mps 740 mmHg 64%
    11:00 +24°C° 0.1 mm 3 mps 739 mmHg 63%
    12:00 +25°C° 0.1 mm 3 mps 739 mmHg 61%
    13:00 +25°C° 0.1 mm 3 mps 739 mmHg 60%
    14:00 +25°C° 0.9 mm 2 mps 739 mmHg 65%
    15:00 +24°C° 0.9 mm 2 mps 739 mmHg 71%
    16:00 +23°C° 0.9 mm 1 mps 738 mmHg 76%
    17:00 +22°C° 0.1 mm 1 mps 738 mmHg 79%
    18:00 +21°C° 0.1 mm 1 mps 738 mmHg 81%
    19:00 +20°C° 0.1 mm 1 mps 738 mmHg 84%
    20:00 +19°C° 0 mm 1 mps 738 mmHg 85%
    21:00 +19°C° 0 mm 1 mps 738 mmHg 87%
    22:00 +18°C° 0 mm 1 mps 738 mmHg 88%
    23:00 +18°C° 0.2 mm 1 mps 738 mmHg 89%

    28 May, Tuesday

    Time Temperature Precipitation Wind Pressure Humidity
    00:00 +18°C° 0.2 mm 1 mps 738 mmHg 91%
    01:00 +16°C° 0.2 mm 0 mps 738 mmHg 92%
    02:00 +16°C° 1.5 mm 0 mps 737 mmHg 92%
    03:00 +16°C° 1.5 mm 0 mps 737 mmHg 93%
    04:00 +16°C° 1.5 mm 0 mps 737 mmHg 94%
    05:00 +19°C° 0.1 mm 1 mps 737 mmHg 91%
    06:00 +20°C° 0.1 mm 1 mps 737 mmHg 88%
    07:00 +21°C° 0.1 mm 1 mps 737 mmHg 85%
    08:00 +22°C° 0 mm 1 mps 736 mmHg 79%
    09:00 +23°C° 0 mm 1 mps 736 mmHg 74%
    10:00 +24°C° 0 mm 2 mps 736 mmHg 68%
    11:00 +25°C° 0.3 mm 2 mps 736 mmHg 68%
    12:00 +25°C° 0.3 mm 2 mps 735 mmHg 67%
    13:00 +25°C° 0.3 mm 2 mps 735 mmHg 66%
    14:00 +24°C° 1.6 mm 1 mps 735 mmHg 71%
    15:00 +24°C° 1.6 mm 1 mps 735 mmHg 75%
    16:00 +23°C° 1.6 mm 1 mps 734 mmHg 79%
    17:00 +22°C° 0.5 mm 1 mps 734 mmHg 81%
    18:00 +19°C° 0.5 mm 0 mps 734 mmHg 84%
    19:00 +18°C° 0.5 mm 0 mps 734 mmHg 86%
    20:00 +17°C° 0.1 mm 0 mps 734 mmHg 86%
    21:00 +18°C° 0.1 mm 1 mps 734 mmHg 87%
    22:00 +16°C° 0.1 mm 1 mps 734 mmHg 88%
    23:00 +16°C° 0 mm 1 mps 735 mmHg 89%

    29 May, Wednesday

    Time Temperature Precipitation Wind Pressure Humidity
    00:00 +15°C° 0 mm 1 mps 735 mmHg 90%
    01:00 +15°C° 0 mm 1 mps 735 mmHg 91%
    02:00 +15°C° 0 mm 2 mps 735 mmHg 91%
    03:00 +15°C° 0 mm 2 mps 735 mmHg 91%
    04:00 +14°C° 0 mm 2 mps 735 mmHg 92%
    05:00 +16°C° 0 mm 2 mps 736 mmHg 90%
    06:00 +17°C° 0 mm 2 mps 736 mmHg 89%
    07:00 +18°C° 0 mm 3 mps 736 mmHg 87%
    08:00 +19°C° 0.3 mm 3 mps 737 mmHg 83%
    09:00 +20°C° 0.3 mm 3 mps 737 mmHg 79%
    10:00 +21°C° 0.3 mm 3 mps 737 mmHg 76%
    11:00 +22°C° 0.6 mm 3 mps 738 mmHg 75%
    12:00 +22°C° 0.6 mm 3 mps 738 mmHg 74%
    13:00 +22°C° 0.6 mm 4 mps 738 mmHg 73%
    14:00 +22°C° 0.8 mm 3 mps 738 mmHg 74%
    15:00 +22°C° 0.8 mm 3 mps 738 mmHg 74%
    16:00 +22°C° 0.8 mm 3 mps 738 mmHg 75%
    17:00 +21°C° 0.5 mm 3 mps 739 mmHg 79%
    18:00 +20°C° 0.5 mm 2 mps 739 mmHg 83%
    19:00 +18°C° 0.5 mm 2 mps 739 mmHg 88%
    20:00 +17°C° 0.1 mm 2 mps 739 mmHg 90%
    21:00 +17°C° 0.1 mm 2 mps 740 mmHg 92%
    22:00 +16°C° 0.1 mm 1 mps 740 mmHg 94%
    23:00 +15°C° 0 mm 2 mps 741 mmHg 94%
    Show more